Location: Erba
(45.8000°N, 9.2500°E)
Time: 11:57:43
(UTC+02:00)

ISS - Pass Details

Date: 08 July 2020
Orbit: 417 x 420 km, 51.6° (Epoch: 02 July)

Event Time Altitude Azimuth Distance (km) Brightness Sun altitude
Rises 04:57:49 0° 290° (WNW) 2,361 -0.2 -6.9°
Reaches altitude 10° 05:00:05 10° 302° (WNW) 1,497 -1.1 -6.6°
Maximum altitude 05:03:05 30° 5° (N) 787 -1.8 -6.2°
Drops below altitude 10° 05:06:06 10° 69° (ENE) 1,495 0.4 -5.8°
Sets 05:08:22 0° 81° (E) 2,358 1.2 -5.5°
